• In Kazakhstan
  • List of Countries
  • For 7 days
  • Water Temperature
  • Satellite Maps
  • Weather Map
  • News
  • Weather Widgets
  • user-avatar
    Login

    Hourly Weather Gold Coast

    Today, 20 April, Saturday

    Time Temperature Precipitation Wind Pressure Humidity
    00:00 +21°C° 1.5 mm 4 mps 762 mmHg 95%
    01:00 +21°C° 1.5 mm 4 mps 762 mmHg 95%
    02:00 +21°C° 1.1 mm 4 mps 762 mmHg 95%
    03:00 +21°C° 1.1 mm 4 mps 762 mmHg 95%
    04:00 +20°C° 0 mm 3 mps 762 mmHg 95%
    05:00 +21°C° 0.7 mm 4 mps 762 mmHg 95%
    06:00 +21°C° 0.7 mm 4 mps 762 mmHg 94%
    07:00 +21°C° 0.7 mm 4 mps 763 mmHg 93%
    08:00 +22°C° 0.6 mm 4 mps 763 mmHg 88%
    09:00 +23°C° 0.6 mm 5 mps 763 mmHg 84%
    10:00 +26°C° 0 mm 5 mps 763 mmHg 78%
    11:00 +26°C° 1.2 mm 5 mps 762 mmHg 80%
    12:00 +25°C° 1.2 mm 5 mps 762 mmHg 83%
    13:00 +25°C° 1.2 mm 5 mps 762 mmHg 86%
    14:00 +25°C° 1 mm 5 mps 762 mmHg 87%
    15:00 +23°C° 1 mm 5 mps 761 mmHg 88%
    16:00 +23°C° 1 mm 5 mps 761 mmHg 89%
    17:00 +22°C° 0.7 mm 4 mps 762 mmHg 91%
    18:00 +22°C° 0.7 mm 4 mps 762 mmHg 93%
    19:00 +21°C° 0.7 mm 4 mps 762 mmHg 94%
    20:00 +21°C° 0.6 mm 4 mps 762 mmHg 94%
    21:00 +21°C° 0.6 mm 4 mps 762 mmHg 94%
    22:00 +21°C° 0.6 mm 4 mps 763 mmHg 94%
    23:00 +21°C° 0.5 mm 4 mps 762 mmHg 94%

    Tomorrow, 21 April, Sunday

    Time Temperature Precipitation Wind Pressure Humidity
    00:00 +21°C° 0.5 mm 4 mps 762 mmHg 94%
    01:00 +21°C° 0.5 mm 4 mps 762 mmHg 94%
    02:00 +21°C° 0.3 mm 4 mps 762 mmHg 94%
    03:00 +21°C° 0.3 mm 4 mps 762 mmHg 94%
    04:00 +21°C° 0.3 mm 4 mps 762 mmHg 94%
    05:00 +21°C° 0.2 mm 4 mps 762 mmHg 94%
    06:00 +21°C° 0.2 mm 4 mps 762 mmHg 93%
    07:00 +21°C° 0.2 mm 4 mps 763 mmHg 92%
    08:00 +22°C° 0 mm 4 mps 763 mmHg 83%
    09:00 +25°C° 0 mm 4 mps 763 mmHg 74%
    10:00 +26°C° 0 mm 4 mps 763 mmHg 65%
    11:00 +27°C° 0 mm 5 mps 762 mmHg 62%
    12:00 +27°C° 0 mm 5 mps 762 mmHg 60%
    13:00 +28°C° 0 mm 5 mps 761 mmHg 58%
    14:00 +27°C° 0 mm 5 mps 761 mmHg 60%
    15:00 +26°C° 0 mm 5 mps 761 mmHg 63%
    16:00 +26°C° 0 mm 5 mps 761 mmHg 66%
    17:00 +23°C° 0.1 mm 4 mps 761 mmHg 74%
    18:00 +22°C° 0.1 mm 4 mps 761 mmHg 82%
    19:00 +21°C° 0.1 mm 4 mps 762 mmHg 90%
    20:00 +21°C° 0.4 mm 4 mps 762 mmHg 91%
    21:00 +21°C° 0.4 mm 4 mps 763 mmHg 93%
    22:00 +21°C° 0.4 mm 4 mps 763 mmHg 94%
    23:00 +20°C° 0.2 mm 4 mps 763 mmHg 94%

    Day after tomorrow, 22 April, Monday

    Time Temperature Precipitation Wind Pressure Humidity
    00:00 +20°C° 0.2 mm 4 mps 762 mmHg 94%
    01:00 +20°C° 0.2 mm 4 mps 762 mmHg 94%
    02:00 +20°C° 0.3 mm 4 mps 761 mmHg 95%
    03:00 +20°C° 0.3 mm 4 mps 761 mmHg 95%
    04:00 +20°C° 0.3 mm 3 mps 761 mmHg 95%
    05:00 +21°C° 0.3 mm 3 mps 761 mmHg 95%
    06:00 +21°C° 0.3 mm 3 mps 762 mmHg 94%
    07:00 +21°C° 0.3 mm 3 mps 762 mmHg 94%
    08:00 +22°C° 0.4 mm 3 mps 762 mmHg 92%
    09:00 +22°C° 0.4 mm 4 mps 762 mmHg 90%
    10:00 +23°C° 0.4 mm 4 mps 762 mmHg 87%
    11:00 +25°C° 0.3 mm 4 mps 762 mmHg 85%
    12:00 +25°C° 0.3 mm 4 mps 762 mmHg 83%
    13:00 +25°C° 0.3 mm 4 mps 761 mmHg 81%
    14:00 +25°C° 0.2 mm 4 mps 761 mmHg 82%
    15:00 +25°C° 0.2 mm 4 mps 761 mmHg 82%
    16:00 +23°C° 0.2 mm 4 mps 761 mmHg 82%
    17:00 +23°C° 0 mm 4 mps 761 mmHg 85%
    18:00 +22°C° 0 mm 4 mps 762 mmHg 87%
    19:00 +21°C° 0 mm 3 mps 762 mmHg 90%
    20:00 +21°C° 0.1 mm 3 mps 763 mmHg 91%
    21:00 +21°C° 0.1 mm 3 mps 763 mmHg 91%
    22:00 +21°C° 0.1 mm 3 mps 763 mmHg 92%
    23:00 +20°C° 0.2 mm 3 mps 763 mmHg 93%

    23 April, Tuesday

    Time Temperature Precipitation Wind Pressure Humidity
    00:00 +20°C° 0.2 mm 3 mps 763 mmHg 94%
    01:00 +20°C° 0.2 mm 3 mps 762 mmHg 95%
    02:00 +20°C° 0.3 mm 3 mps 762 mmHg 95%
    03:00 +20°C° 0.3 mm 3 mps 762 mmHg 95%
    04:00 +20°C° 0.3 mm 4 mps 762 mmHg 95%
    05:00 +21°C° 0.3 mm 4 mps 762 mmHg 94%
    06:00 +21°C° 0.3 mm 4 mps 763 mmHg 93%
    07:00 +21°C° 0.3 mm 4 mps 763 mmHg 92%
    08:00 +22°C° 0.1 mm 4 mps 764 mmHg 83%
    09:00 +25°C° 0.1 mm 4 mps 764 mmHg 75%
    10:00 +26°C° 0.1 mm 4 mps 764 mmHg 66%
    11:00 +26°C° 0 mm 4 mps 763 mmHg 63%
    12:00 +27°C° 0 mm 3 mps 763 mmHg 61%
    13:00 +27°C° 0 mm 3 mps 762 mmHg 59%
    14:00 +27°C° 0.1 mm 4 mps 762 mmHg 64%
    15:00 +26°C° 0.1 mm 4 mps 762 mmHg 70%
    16:00 +25°C° 0.1 mm 4 mps 762 mmHg 76%
    17:00 +23°C° 0.1 mm 4 mps 762 mmHg 80%
    18:00 +22°C° 0.1 mm 4 mps 762 mmHg 84%
    19:00 +21°C° 0.1 mm 3 mps 763 mmHg 88%
    20:00 +21°C° 0.1 mm 3 mps 763 mmHg 89%
    21:00 +21°C° 0.1 mm 3 mps 763 mmHg 89%
    22:00 +21°C° 0.1 mm 3 mps 763 mmHg 90%
    23:00 +20°C° 0 mm 3 mps 763 mmHg 90%

    24 April, Wednesday

    Time Temperature Precipitation Wind Pressure Humidity
    00:00 +20°C° 0 mm 3 mps 763 mmHg 90%
    01:00 +20°C° 0 mm 2 mps 762 mmHg 90%
    02:00 +20°C° 0.1 mm 2 mps 762 mmHg 91%
    03:00 +20°C° 0.1 mm 2 mps 762 mmHg 92%
    04:00 +19°C° 0.1 mm 2 mps 762 mmHg 93%
    05:00 +19°C° 0.2 mm 3 mps 762 mmHg 93%
    06:00 +20°C° 0.2 mm 3 mps 762 mmHg 93%
    07:00 +20°C° 0.2 mm 3 mps 763 mmHg 93%
    08:00 +21°C° 0.2 mm 3 mps 763 mmHg 86%
    09:00 +24°C° 0.2 mm 3 mps 763 mmHg 79%
    10:00 +25°C° 0.2 mm 4 mps 763 mmHg 73%
    11:00 +26°C° 0.2 mm 4 mps 762 mmHg 68%
    12:00 +26°C° 0.2 mm 4 mps 762 mmHg 64%
    13:00 +27°C° 0.2 mm 4 mps 761 mmHg 59%
    14:00 +27°C° 0 mm 4 mps 761 mmHg 60%
    15:00 +26°C° 0 mm 4 mps 761 mmHg 61%
    16:00 +25°C° 0 mm 4 mps 761 mmHg 62%
    17:00 +23°C° 0 mm 4 mps 761 mmHg 68%
    18:00 +21°C° 0 mm 3 mps 762 mmHg 74%
    19:00 +20°C° 0 mm 3 mps 762 mmHg 80%
    20:00 +20°C° 0 mm 2 mps 762 mmHg 82%
    21:00 +19°C° 0 mm 2 mps 762 mmHg 84%
    22:00 +19°C° 0 mm 2 mps 762 mmHg 86%
    23:00 +19°C° 0 mm 2 mps 762 mmHg 87%

    25 April, Thursday

    Time Temperature Precipitation Wind Pressure Humidity
    00:00 +18°C° 0 mm 2 mps 762 mmHg 89%
    01:00 +19°C° 0 mm 1 mps 761 mmHg 90%
    02:00 +18°C° 0 mm 2 mps 761 mmHg 91%
    03:00 +18°C° 0 mm 2 mps 761 mmHg 92%
    04:00 +18°C° 0 mm 2 mps 760 mmHg 93%
    05:00 +18°C° 0 mm 2 mps 761 mmHg 92%
    06:00 +18°C° 0 mm 2 mps 761 mmHg 91%
    07:00 +18°C° 0 mm 2 mps 761 mmHg 89%
    08:00 +22°C° 0 mm 1 mps 761 mmHg 78%
    09:00 +25°C° 0 mm 1 mps 761 mmHg 66%
    10:00 +27°C° 0 mm 1 mps 761 mmHg 54%
    11:00 +28°C° 0 mm 1 mps 760 mmHg 52%
    12:00 +29°C° 0 mm 1 mps 760 mmHg 49%
    13:00 +29°C° 0 mm 2 mps 759 mmHg 47%
    14:00 +28°C° 0 mm 2 mps 759 mmHg 52%
    15:00 +27°C° 0 mm 3 mps 759 mmHg 58%
    16:00 +26°C° 0 mm 3 mps 759 mmHg 63%
    17:00 +25°C° 0 mm 3 mps 759 mmHg 71%
    18:00 +23°C° 0 mm 2 mps 760 mmHg 79%
    19:00 +20°C° 0 mm 2 mps 760 mmHg 87%
    20:00 +20°C° 0 mm 2 mps 760 mmHg 88%
    21:00 +21°C° 0 mm 1 mps 761 mmHg 89%
    22:00 +20°C° 0 mm 1 mps 761 mmHg 89%
    23:00 +20°C° 0 mm 1 mps 761 mmHg 90%
    Show more